User: anonymous   Login
Location: Holcomb Observatory
(44.4922°N, 73.1654°W)
Time: 18:04:03
(UTC-04:00)
Language:

Cosmos 1727 Rocket - Orbit

View from above orbital plane
View from above orbital plane
View from above satellite
View from above satellite

Ground track
Ground track

The orbit data is extracted from the following two-line orbital elements,

1 16511U 86008B   16207.35682477  .00000058  00000-0  44346-4 0  9992
2 16511  82.9453 102.3084 0025418 114.1117  23.2194 13.75805858531337
Epoch (UTC): 25 July 2016 08:33:49
Eccentricity: 0.0025418
inclination: 82.9453°
perigee height: 960 km
apogee height: 997 km
right ascension of ascending node: 102.3084°
argument of perigee: 114.1117°
revolutions per day: 13.75805858
mean anomaly at epoch: 23.2194°
orbit number at epoch: 53133

The dashed part of the orbit path shows where the satellite is in the earth's shadow,  

DLR